Istanbul, Turkey

3:31 PM +03 on December 03, 2016 (GMT +0300)
Ataturk

Weather History for LTBA - October, 2013

Change the Weather History Date:

Monday, October 14, 2013

  Actual Average Record
Temperature  
Mean Temperature 66 °F -  
Max Temperature 72 °F 66 °F 79 °F (2012)
Min Temperature 59 °F 56 °F 50 °F (2007)
Growing Degree Days 16 (Base 50)    
Moisture  
Dew Point 52 °F    
Average Humidity 65    
Maximum Humidity 77    
Minimum Humidity 43    
Precipitation  
Precipitation 0.00 in - - ()
Sea Level Pressure  
Sea Level Pressure 30.19 in    
Wind  
Wind Speed 7 mph ()    
Max Wind Speed 13 mph    
Max Gust Speed -    
Visibility 5.1 miles    
Events      
Averages and records for this station are not official NWS values.
T = Trace of Precipitation, MM = Missing Value Source: Averaged Metar Reports

Daily Weather History Graph

Daily Weather History Graph

Search for Another Location

Airport or City:

Trip Planner

Search our weather history database for the weather conditions in past years. The results will help you decide how hot, cold, wet, or windy it might be!

Date:

Astronomy

Oct. 14, 2013 Rise Set
Actual Time 7:15 AM EEST 6:25 PM EEST
Civil Twilight 6:47 AM EEST 6:53 PM EEST
Nautical Twilight 6:15 AM EEST 7:25 PM EEST
Astronomical Twilight 5:43 AM EEST 7:57 PM EEST
Moon 3:45 PM EEST (10/14) 2:07 AM EEST (10/14)
Length of Visible Light 12h 06m
Length of Day
11h 10m
Waxing Gibbous, 76% of the Moon is Illuminated
Oct 14
Waxing Gibbous
Oct 19
Full
Oct 27
Last Quarter
Nov 3
New
Nov 10
First Quarter

Hourly Weather History & Observations

Time (EEST) Temp. Dew Point Humidity Pressure Visibility Wind Dir Wind Speed Gust Speed Precip Events Conditions
12:20 AM 60.8 °F 53.6 °F 77% 30.21 in 6.2 mi ENE 8.1 mph - N/A   Scattered Clouds
12:50 AM 62.6 °F 53.6 °F 72% 30.21 in 6.2 mi East 8.1 mph - N/A   Scattered Clouds
1:20 AM 62.6 °F 51.8 °F 68% 30.21 in 6.2 mi East 9.2 mph - N/A   Scattered Clouds
1:50 AM 60.8 °F 51.8 °F 72% 30.21 in 6.2 mi ENE 6.9 mph - N/A   Scattered Clouds
2:20 AM 60.8 °F 51.8 °F 72% 30.21 in 6.2 mi NE 6.9 mph - N/A   Scattered Clouds
2:50 AM 62.6 °F 51.8 °F 68% 30.21 in 6.2 mi NE 5.8 mph - N/A   Scattered Clouds
3:00 AM 62 °F 52 °F 62% 30.21 in 6 mi NE 5.8 mph - -   Partly Cloudy
3:20 AM 62.6 °F 53.6 °F 72% 30.24 in 6.2 mi North 6.9 mph - N/A   Scattered Clouds
3:50 AM 60.8 °F 51.8 °F 72% 30.18 in 6.2 mi NE 4.6 mph - N/A   Partly Cloudy
4:20 AM 60.8 °F 53.6 °F 77% 30.18 in 4.3 mi NE 5.8 mph - N/A   Partly Cloudy
4:50 AM 60.8 °F 53.6 °F 77% 30.18 in 4.3 mi NE 4.6 mph - N/A   Partly Cloudy
5:20 AM 60.8 °F 53.6 °F 77% 30.18 in - NE 6.9 mph - N/A   Clear
5:50 AM 59.0 °F 51.8 °F 77% 30.18 in - ENE 4.6 mph - N/A   Clear
6:20 AM 59.0 °F 51.8 °F 77% 30.21 in - NE 5.8 mph - N/A   Clear
6:50 AM 60.8 °F 51.8 °F 72% 30.21 in - NE 6.9 mph - N/A   Clear
7:20 AM 60.8 °F 51.8 °F 72% 30.21 in 2.5 mi NE 6.9 mph - N/A   Mist
7:50 AM 59.0 °F 51.8 °F 77% 30.21 in 2.5 mi NNE 4.6 mph - N/A   Mist
8:20 AM 62.6 °F 53.6 °F 72% 30.21 in 2.5 mi Variable 5.8 mph - N/A   Mist
8:50 AM 62.6 °F 51.8 °F 68% 30.21 in 2.5 mi Variable 5.8 mph - N/A   Mist
9:00 AM 62 °F 53 °F 63% 30.23 in 2 mi ENE 5.8 mph - -   Mist
9:20 AM 62.6 °F 51.8 °F 68% 30.21 in 6.2 mi East 8.1 mph - N/A   Partly Cloudy
9:50 AM 66.2 °F 51.8 °F 60% 30.24 in 6.2 mi Variable 10.4 mph - N/A   Partly Cloudy
10:20 AM 66.2 °F 51.8 °F 60% 30.24 in 6.2 mi ESE 9.2 mph - N/A   Partly Cloudy
10:50 AM 64.4 °F 51.8 °F 64% 30.21 in - ESE 10.4 mph - N/A   Clear
11:20 AM 66.2 °F 53.6 °F 64% 30.21 in - East 8.1 mph - N/A   Clear
11:50 AM 68.0 °F 53.6 °F 60% 30.21 in - East 9.2 mph - N/A   Clear
12:20 PM 66.2 °F 51.8 °F 60% 30.21 in - ESE 8.1 mph - N/A   Clear
12:50 PM 68.0 °F 51.8 °F 56% 30.21 in - ESE 8.1 mph - N/A   Clear
1:20 PM 69.8 °F 51.8 °F 53% 30.18 in - ESE 6.9 mph - N/A   Clear
1:50 PM 69.8 °F 53.6 °F 56% 30.18 in - SSE 5.8 mph - N/A   Clear
2:20 PM 71.6 °F 53.6 °F 53% 30.18 in - SSE 5.8 mph - N/A   Clear
2:50 PM 69.8 °F 53.6 °F 56% 30.15 in - SW 5.8 mph - N/A   Clear
3:00 PM 70 °F 54 °F 48% 30.18 in 6 mi SW 5.8 mph - -  
3:20 PM 69.8 °F 55.4 °F 60% 30.15 in - South 4.6 mph - N/A   Clear
3:50 PM 71.6 °F 53.6 °F 53% 30.15 in - SSE 3.5 mph - N/A   Clear
4:20 PM 71.6 °F 50.0 °F 46% 30.15 in - North 9.2 mph - N/A   Clear
4:50 PM 71.6 °F 48.2 °F 43% 30.15 in - NNE 9.2 mph - N/A   Clear
5:20 PM 69.8 °F 50.0 °F 49% 30.15 in - NE 10.4 mph - N/A   Clear
5:50 PM 68.0 °F 48.2 °F 49% 30.15 in - NE 11.5 mph - N/A   Clear
6:20 PM 66.2 °F 50.0 °F 56% 30.15 in - NNE 12.7 mph - N/A   Clear
6:50 PM 64.4 °F 51.8 °F 64% 30.15 in - NNE 12.7 mph - N/A   Clear
7:20 PM 62.6 °F 51.8 °F 68% 30.18 in - North 12.7 mph - N/A   Clear
7:50 PM 62.6 °F 51.8 °F 68% 30.18 in - NNE 11.5 mph - N/A   Clear
8:20 PM 62.6 °F 53.6 °F 72% 30.18 in - NNE 11.5 mph - N/A   Clear
8:50 PM 62.6 °F 53.6 °F 72% 30.18 in - NE 9.2 mph - N/A   Clear
9:00 PM 62 °F 53 °F 64% 30.19 in 6 mi NE 9.2 mph - -  
9:20 PM 60.8 °F 53.6 °F 77% 30.18 in - NE 11.5 mph - N/A   Clear
9:50 PM 62.6 °F 51.8 °F 68% 30.18 in - East 10.4 mph - N/A   Clear
10:20 PM 60.8 °F 51.8 °F 72% 30.18 in - ENE 9.2 mph - N/A   Clear
10:50 PM 60.8 °F 51.8 °F 72% 30.18 in - ENE 8.1 mph - N/A   Clear
11:20 PM 60.8 °F 51.8 °F 72% 30.18 in - ENE 8.1 mph - N/A   Clear
11:50 PM 60.8 °F 51.8 °F 72% 30.18 in - NE 6.9 mph - N/A   Clear